New Iberia, LA

7:39 AM CST on January 19, 2018 (GMT -0600)
Acadiana Regional

Weather History for KARA - April, 2014

Change the Weather History Date:

Wednesday, April 16, 2014

  Actual Average Record
Temperature  
Mean Temperature 54 °F 68 °F  
Max Temperature 67 °F 79 °F 87 °F (1981)
Min Temperature 40 °F 57 °F 38 °F (1983)
Degree Days  
Heating Degree Days 11 1  
Month to date heating degree days 36 36  
Since 1 July heating degree days 1773 1400  
Cooling Degree Days 0 4  
Month to date cooling degree days 49 57  
Year to date cooling degree days 90 140  
Growing Degree Days 4 (Base 50)    
Moisture  
Dew Point 41 °F    
Average Humidity 67    
Maximum Humidity 89    
Minimum Humidity 44    
Precipitation  
Precipitation 0.00 in 0.14 in 2.71 in (2012)
Month to date precipitation 2.24 2.36  
Year to date precipitation 12.09 15.54  
Sea Level Pressure  
Sea Level Pressure 30.18 in    
Wind  
Wind Speed 8 mph (ESE)    
Max Wind Speed 14 mph    
Max Gust Speed 22 mph    
Visibility 10 miles    
Events      
T = Trace of Precipitation, MM = Missing Value Source: NWS Daily Summary

Daily Weather History Graph

Daily Weather History Graph

Search for Another Location

Airport or City:

Trip Planner

Search our weather history database for the weather conditions in past years. The results will help you decide how hot, cold, wet, or windy it might be!

Date:

Astronomy

Apr. 16, 2014 Rise Set
Actual Time 6:39 AM CDT 7:35 PM CDT
Civil Twilight 6:14 AM CDT 8:00 PM CDT
Nautical Twilight 5:45 AM CDT 8:29 PM CDT
Astronomical Twilight 5:16 AM CDT 8:59 PM CDT
Moon 9:13 PM CDT (4/16) 7:31 AM CDT (4/16)
Length of Visible Light 13h 45m
Length of Day
12h 55m
Full, 98% of the Moon is Illuminated
Apr 16
Full
Apr 22
Last Quarter
Apr 29
New
May 6
First Quarter
May 14
Full

Hourly Weather History & Observations

Time (CDT) Temp. Windchill Dew Point Humidity Pressure Visibility Wind Dir Wind Speed Gust Speed Precip Events Conditions
12:53 AM 46.9 °F - 35.1 °F 63% 30.19 in 10.0 mi NE 8.1 mph - N/A   Clear
1:53 AM 46.0 °F 41.9 °F 34.0 °F 63% 30.20 in 10.0 mi NE 8.1 mph - N/A   Clear
2:53 AM 45.0 °F 40.6 °F 34.0 °F 65% 30.19 in 10.0 mi ENE 8.1 mph - N/A   Clear
3:53 AM 44.1 °F 40.1 °F 35.1 °F 71% 30.19 in 10.0 mi ENE 6.9 mph - N/A   Clear
4:53 AM 42.1 °F 38.4 °F 34.0 °F 73% 30.20 in 10.0 mi ENE 5.8 mph - N/A   Clear
5:53 AM 41.0 °F 36.4 °F 34.0 °F 76% 30.21 in 10.0 mi ENE 6.9 mph - N/A   Clear
6:53 AM 42.1 °F 37.7 °F 35.1 °F 76% 30.23 in 10.0 mi ENE 6.9 mph - N/A   Clear
7:53 AM 46.0 °F 41.4 °F 36.0 °F 68% 30.25 in 10.0 mi ENE 9.2 mph - N/A   Clear
8:53 AM 50.0 °F - 37.0 °F 61% 30.25 in 10.0 mi ENE 11.5 mph - N/A   Clear
9:53 AM 54.0 °F - 37.9 °F 55% 30.25 in 10.0 mi East 12.7 mph - N/A   Clear
10:53 AM 57.9 °F - 37.0 °F 46% 30.25 in 10.0 mi SE 9.2 mph - N/A   Clear
11:53 AM 59.0 °F - 39.0 °F 48% 30.24 in 10.0 mi SE 6.9 mph - N/A   Clear
12:53 PM 62.1 °F - 41.0 °F 46% 30.20 in 10.0 mi Variable 6.9 mph - N/A   Clear
1:53 PM 64.0 °F - 43.0 °F 46% 30.17 in 10.0 mi Variable 6.9 mph - N/A   Clear
2:53 PM 66.9 °F - 46.0 °F 47% 30.15 in 10.0 mi SSE 9.2 mph - N/A   Clear
3:53 PM 64.9 °F - 46.0 °F 50% 30.12 in 10.0 mi South 9.2 mph - N/A   Scattered Clouds
4:53 PM 64.0 °F - 44.1 °F 48% 30.11 in 10.0 mi South 10.4 mph - N/A   Clear
5:53 PM 63.0 °F - 44.1 °F 50% 30.10 in 10.0 mi Variable 3.5 mph - N/A   Clear
6:53 PM 62.1 °F - 45.0 °F 53% 30.10 in 10.0 mi SW 6.9 mph - N/A   Clear
7:53 PM 57.9 °F - 46.9 °F 67% 30.10 in 10.0 mi South 4.6 mph - N/A   Clear
8:53 PM 55.0 °F - 46.9 °F 74% 30.11 in 10.0 mi SSE 4.6 mph - N/A   Clear
9:53 PM 54.0 °F - 48.0 °F 80% 30.13 in 10.0 mi SE 3.5 mph - N/A   Clear
10:53 PM 52.0 °F - 48.0 °F 86% 30.14 in 10.0 mi SE 6.9 mph - N/A   Clear
11:53 PM 53.1 °F - 48.0 °F 83% 30.15 in 10.0 mi SE 9.2 mph - N/A   Clear